Craig, CO

7:53 AM MDT on August 29, 2016 (GMT -0600)
Craig-Moffat

Weather History for KCAG - September, 2013

Change the Weather History Date:

Saturday, September 7, 2013

  Actual Average Record
Temperature  
Mean Temperature 70 °F 59 °F  
Max Temperature 89 °F 77 °F 89 °F (1998)
Min Temperature 51 °F 40 °F 32 °F (2000)
Degree Days  
Heating Degree Days 0 6  
Month to date heating degree days 0 37  
Since 1 July heating degree days 5 114  
Cooling Degree Days 5 0  
Month to date cooling degree days 41 0  
Year to date cooling degree days 373 140  
Growing Degree Days 20 (Base 50)    
Moisture  
Dew Point 46 °F    
Average Humidity 48    
Maximum Humidity 77    
Minimum Humidity 18    
Precipitation  
Precipitation T in 0.06 in 0.61 in (2003)
Month to date precipitation 0.02 0.39  
Year to date precipitation 6.14 10.45  
Sea Level Pressure  
Sea Level Pressure 30.04 in    
Wind  
Wind Speed 7 mph (ESE)    
Max Wind Speed 28 mph    
Max Gust Speed 37 mph    
Visibility 10 miles    
Events Rain , Thunderstorm    
T = Trace of Precipitation, MM = Missing Value Source: NWS Daily Summary

Daily Weather History Graph

Daily Weather History Graph

Search for Another Location

Airport or City:

Trip Planner

Search our weather history database for the weather conditions in past years. The results will help you decide how hot, cold, wet, or windy it might be!

Date:

Astronomy

Sep. 07, 2013 Rise Set
Actual Time 6:43 AM MDT 7:31 PM MDT
Civil Twilight 6:15 AM MDT 7:59 PM MDT
Nautical Twilight 5:42 AM MDT 8:32 PM MDT
Astronomical Twilight 5:08 AM MDT 9:05 PM MDT
Moon 9:01 AM MDT (9/7) 8:31 PM MDT (9/7)
Length of Visible Light 13h 43m
Length of Day
12h 48m
Waxing Crescent, 5% of the Moon is Illuminated
Sep 7
Waxing Crescent
Sep 12
First Quarter
Sep 19
Full
Sep 26
Last Quarter
Oct 4
New

Hourly Weather History & Observations

Time (MDT) Temp. Dew Point Humidity Pressure Visibility Wind Dir Wind Speed Gust Speed Precip Events Conditions
12:53 AM 64.9 °F 45.0 °F 48% 29.98 in 10.0 mi NNE 4.6 mph - N/A   Clear
1:53 AM 64.9 °F 45.0 °F 48% 29.99 in 10.0 mi ENE 8.1 mph - N/A   Unknown
2:53 AM 64.0 °F 46.0 °F 52% 29.99 in 10.0 mi Variable 4.6 mph - N/A   Clear
3:53 AM 64.0 °F 46.0 °F 52% 29.98 in 10.0 mi East 5.8 mph - N/A   Clear
4:53 AM 55.0 °F 45.0 °F 69% 30.03 in 10.0 mi SSW 3.5 mph - N/A   Clear
5:53 AM 52.0 °F 43.0 °F 71% 30.04 in 10.0 mi Calm Calm - N/A   Clear
6:53 AM 52.0 °F 44.1 °F 74% 30.08 in 10.0 mi SW 3.5 mph - N/A   Scattered Clouds
7:53 AM 55.9 °F 46.9 °F 72% 30.08 in 10.0 mi Calm Calm - N/A   Clear
8:53 AM 64.0 °F 48.0 °F 56% 30.06 in 10.0 mi Calm Calm - N/A   Clear
9:53 AM 72.0 °F 48.9 °F 44% 30.05 in 10.0 mi West 5.8 mph - N/A   Clear
10:53 AM 75.9 °F 46.0 °F 35% 30.04 in 10.0 mi WNW 8.1 mph - N/A   Scattered Clouds
11:53 AM 82.0 °F 45.0 °F 27% 30.00 in 10.0 mi Variable 3.5 mph - N/A   Partly Cloudy
12:53 PM 84.9 °F 41.0 °F 21% 29.96 in 10.0 mi West 4.6 mph - N/A   Clear
1:53 PM 87.1 °F 41.0 °F 20% 29.93 in 10.0 mi Variable 3.5 mph - N/A   Clear
2:26 PM 86.0 °F 39.2 °F 19% 30.18 in 10.0 mi Calm Calm - N/A Thunderstorm Clear
2:43 PM 82.4 °F 44.6 °F 26% 30.19 in 10.0 mi SSE 19.6 mph 24.2 mph N/A   Mostly Cloudy
2:53 PM 75.0 °F 53.1 °F 46% 29.96 in 10.0 mi SSE 18.4 mph 29.9 mph 0.00 in Rain Light Rain
3:17 PM 78.8 °F 42.8 °F 28% 30.18 in 10.0 mi SE 13.8 mph 36.8 mph 0.00 in Rain , Thunderstorm Light Rain
3:34 PM 80.6 °F 42.8 °F 26% 30.16 in 10.0 mi SE 15.0 mph - 0.00 in   Mostly Cloudy
3:53 PM 86.0 °F 41.0 °F 20% 29.88 in 10.0 mi South 8.1 mph - 0.00 in   Partly Cloudy
4:53 PM 88.0 °F 39.0 °F 18% 29.88 in 10.0 mi West 11.5 mph - N/A   Clear
5:53 PM 82.9 °F 42.1 °F 24% 29.91 in 10.0 mi West 5.8 mph - N/A   Clear
6:53 PM 82.0 °F 43.0 °F 25% 29.92 in 10.0 mi East 15.0 mph 21.9 mph N/A   Clear
7:53 PM 70.0 °F 51.1 °F 51% 29.99 in 10.0 mi NE 8.1 mph - N/A   Partly Cloudy
8:53 PM 73.0 °F 46.0 °F 38% 29.97 in 10.0 mi ESE 23.0 mph 32.2 mph N/A   Mostly Cloudy
9:14 PM 69.8 °F 48.2 °F 46% 30.21 in 10.0 mi East 17.3 mph 27.6 mph N/A Thunderstorm Mostly Cloudy
9:39 PM 69.8 °F 48.2 °F 46% 30.24 in 2.5 mi NW 4.6 mph - N/A Thunderstorm Unknown
9:46 PM 69.8 °F 48.2 °F 46% 30.24 in 10.0 mi ENE 8.1 mph - N/A   Overcast
9:53 PM 69.1 °F 48.9 °F 49% 30.01 in 10.0 mi East 10.4 mph - 0.00 in Rain Light Rain
10:07 PM 66.2 °F 53.6 °F 64% 30.24 in 10.0 mi East 9.2 mph - 0.00 in Rain , Thunderstorm Light Rain
10:22 PM 66.2 °F 53.6 °F 64% 30.24 in 10.0 mi East 4.6 mph - 0.00 in   Overcast
10:53 PM 66.9 °F 52.0 °F 59% 30.00 in 10.0 mi ENE 8.1 mph - 0.00 in   Overcast
11:53 PM 66.0 °F 50.0 °F 56% 29.97 in 10.0 mi Calm Calm - 0.00 in   Mostly Cloudy